Tracking 22779 objects as of 12-Apr-2021
HD Live streaming from Space Station
objects crossing your sky now

USA 179

Track USA 179 now!
USA 179 is classified as:


NORAD ID: 28384
Int'l Code: 2004-034A
Perigee: 1,316.1 km
Apogee: 39,053.3 km
Inclination: 63.7 °
Period: 717.8 minutes
Semi major axis: 26555 km
RCS: Unknown
Launch date: August 31, 2004
Source: United States (US)
Launch site: AIR FORCE EASTERN TEST RANGE (AFETR)
aabbcc
Your satellite tracking list
Your tracking list is empty




NASA's NSSDC Master Catalog

Two Line Element Set (TLE):
1 28384U 04034A   20355.63302333 0.00000000  00000-0  00000-0 0    07
2 28384  63.7068 144.2383 7105305 268.5198  16.6007  2.00616600    03
Source of the keplerian elements: McCants